Total_Precipitation_Accumulation
0.53 0.43 0.52 0.59 0.54 0.57 0.80 0.83 0.74 0.41 0.32 0.32 0.32 0.34 0.33 0.32 0.30 0.25 0.28 0.31 0.35 0.40 0.45 0.55 0.70 0.88 1.08 1.11 1.00 1.02 1.10 1.25 1.40 1.46 1.41 1.39 1.50 1.65 1.73 1.76 1.77 1.78 1.79 1.72
0.53 0.36 0.41 0.45 0.39 0.41 0.48 0.47 0.45 0.33 0.35 0.32 0.31 0.32 0.35 0.37 0.33 0.29 0.31 0.35 0.38 0.41 0.43 0.51 0.70 0.89 1.06 1.17 1.18 1.16 1.26 1.33 1.44 1.56 1.54 1.50 1.53 1.66 1.80 1.85 1.89 1.88 1.81 1.75
0.79 0.44 0.67 0.71 0.43 0.40 0.42 0.40 0.40 0.42 0.37 0.31 0.31 0.35 0.39 0.41 0.40 0.40 0.37 0.38 0.41 0.45 0.47 0.54 0.74 0.93 1.04 1.13 1.23 1.31 1.39 1.40 1.39 1.47 1.53 1.50 1.47 1.56 1.73 1.79 1.79 1.80 1.77 1.71
1.14 0.85 1.23 0.64 0.31 0.31 0.35 0.38 0.42 0.43 0.38 0.35 0.35 0.37 0.40 0.42 0.44 0.44 0.43 0.44 0.46 0.49 0.50 0.54 0.67 0.80 0.88 1.01 1.12 1.24 1.35 1.41 1.40 1.39 1.44 1.51 1.50 1.44 1.49 1.56 1.63 1.63 1.57 1.53
1.54 1.13 0.68 0.31 0.25 0.35 0.41 0.47 0.47 0.43 0.37 0.33 0.29 0.29 0.34 0.36 0.38 0.41 0.44 0.47 0.47 0.48 0.54 0.58 0.64 0.72 0.76 0.87 1.01 1.10 1.19 1.26 1.32 1.31 1.31 1.35 1.42 1.37 1.32 1.34 1.39 1.43 1.42 1.38
1.68 1.25 0.66 0.40 0.26 0.28 0.37 0.55 0.45 0.39 0.38 0.37 0.38 0.54 0.51 0.42 0.36 0.35 0.36 0.40 0.43 0.43 0.49 0.58 0.67 0.70 0.73 0.80 0.88 1.01 1.04 1.05 1.07 1.12 1.17 1.16 1.15 1.17 1.14 1.18 1.23 1.25 1.31 1.33
1.41 1.13 0.52 0.29 0.20 0.24 0.58 0.73 0.47 0.42 0.41 0.43 0.55 0.67 0.56 0.44 0.38 0.35 0.33 0.33 0.35 0.36 0.44 0.55 0.66 0.69 0.71 0.77 0.83 0.92 0.96 0.91 0.91 0.96 1.02 1.04 1.07 1.08 1.05 1.06 1.11 1.18 1.23 1.27
1.06 1.24 0.67 0.29 0.28 0.51 0.71 0.47 0.43 0.42 0.40 0.43 0.42 0.38 0.37 0.35 0.34 0.32 0.31 0.29 0.31 0.34 0.40 0.49 0.59 0.65 0.68 0.77 0.82 0.87 0.93 0.90 0.87 0.90 0.95 0.97 1.01 1.09 1.08 1.08 1.14 1.16 1.20 1.28
0.82 0.75 0.50 0.41 0.47 0.49 0.43 0.40 0.38 0.41 0.40 0.41 0.38 0.33 0.31 0.30 0.30 0.29 0.28 0.29 0.31 0.35 0.40 0.43 0.48 0.54 0.61 0.68 0.73 0.80 0.87 0.89 0.89 0.92 0.95 0.98 1.02 1.08 1.16 1.17 1.19 1.21 1.19 1.23
0.56 0.45 0.42 0.42 0.41 0.38 0.34 0.35 0.35 0.35 0.39 0.39 0.37 0.31 0.28 0.26 0.26 0.25 0.25 0.28 0.32 0.35 0.37 0.41 0.42 0.47 0.53 0.58 0.64 0.73 0.82 0.86 0.88 0.91 0.96 1.01 1.03 1.07 1.15 1.23 1.29 1.31 1.26 1.22
0.42 0.32 0.32 0.35 0.36 0.33 0.28 0.25 0.24 0.24 0.25 0.29 0.29 0.28 0.27 0.26 0.26 0.28 0.29 0.28 0.28 0.31 0.36 0.39 0.40 0.44 0.47 0.50 0.56 0.67 0.72 0.77 0.85 0.89 0.93 0.98 0.99 1.03 1.08 1.11 1.29 1.52 1.41 1.36
0.38 0.27 0.27 0.28 0.25 0.24 0.23 0.21 0.22 0.23 0.20 0.20 0.22 0.25 0.24 0.25 0.27 0.28 0.30 0.29 0.27 0.27 0.29 0.32 0.34 0.40 0.44 0.45 0.49 0.57 0.64 0.68 0.76 0.85 0.91 0.93 0.95 1.03 1.10 1.09 1.13 1.16 1.18 1.27
0.24 0.20 0.19 0.18 0.15 0.15 0.17 0.18 0.19 0.19 0.18 0.18 0.19 0.21 0.22 0.23 0.24 0.24 0.25 0.26 0.27 0.27 0.26 0.28 0.29 0.34 0.42 0.44 0.44 0.49 0.60 0.67 0.73 0.77 0.84 0.90 0.92 0.97 1.03 1.05 1.03 1.02 1.04 1.09
0.16 0.17 0.18 0.15 0.14 0.14 0.15 0.15 0.15 0.15 0.15 0.15 0.16 0.17 0.19 0.20 0.21 0.21 0.23 0.25 0.23 0.23 0.23 0.24 0.25 0.30 0.37 0.41 0.42 0.46 0.54 0.64 0.70 0.74 0.81 0.87 0.91 0.95 0.99 1.02 1.02 1.00 1.02 1.09
0.14 0.15 0.16 0.14 0.13 0.13 0.13 0.13 0.13 0.13 0.12 0.12 0.12 0.14 0.17 0.18 0.20 0.21 0.22 0.21 0.18 0.18 0.20 0.21 0.22 0.27 0.32 0.35 0.39 0.44 0.51 0.61 0.69 0.74 0.78 0.83 0.86 0.90 0.96 0.96 0.93 0.91 0.94 1.07
0.15 0.14 0.13 0.13 0.13 0.12 0.12 0.13 0.14 0.14 0.11 0.11 0.12 0.14 0.17 0.18 0.19 0.20 0.18 0.18 0.17 0.17 0.19 0.21 0.23 0.26 0.29 0.32 0.38 0.43 0.49 0.63 0.73 0.77 0.79 0.82 0.84 0.88 0.92 0.93 0.89 0.88 0.93 1.00
0.18 0.15 0.13 0.12 0.11 0.12 0.12 0.14 0.14 0.14 0.12 0.12 0.14 0.16 0.17 0.18 0.18 0.18 0.18 0.18 0.17 0.17 0.19 0.21 0.24 0.26 0.27 0.30 0.37 0.42 0.49 0.58 0.70 0.75 0.78 0.80 0.86 0.89 0.92 0.95 0.94 0.91 0.91 0.95
0.19 0.19 0.18 0.16 0.15 0.15 0.14 0.13 0.14 0.14 0.14 0.14 0.16 0.18 0.19 0.20 0.20 0.19 0.19 0.19 0.18 0.18 0.20 0.21 0.25 0.27 0.27 0.31 0.37 0.41 0.48 0.57 0.66 0.75 0.78 0.81 0.89 0.92 0.93 0.94 0.93 0.93 0.88 0.89
0.15 0.16 0.16 0.17 0.18 0.19 0.17 0.14 0.14 0.15 0.15 0.16 0.18 0.20 0.22 0.23 0.23 0.22 0.21 0.20 0.19 0.20 0.21 0.23 0.28 0.27 0.28 0.33 0.42 0.46 0.54 0.60 0.66 0.69 0.73 0.83 0.88 0.86 0.89 0.91 0.93 0.92 0.89 0.89
0.16 0.16 0.17 0.18 0.19 0.20 0.19 0.16 0.15 0.16 0.17 0.18 0.20 0.22 0.23 0.24 0.25 0.25 0.24 0.23 0.23 0.24 0.24 0.27 0.28 0.28 0.31 0.38 0.51 0.57 0.60 0.64 0.70 0.72 0.74 0.79 0.86 0.88 0.89 0.92 0.94 0.94 0.91 0.91
0.19 0.19 0.19 0.19 0.19 0.18 0.19 0.18 0.18 0.19 0.19 0.19 0.22 0.25 0.26 0.27 0.26 0.26 0.25 0.26 0.26 0.27 0.27 0.28 0.29 0.36 0.44 0.55 0.61 0.60 0.61 0.68 0.74 0.79 0.81 0.83 0.87 0.89 0.90 0.92 0.95 0.97 0.99 0.98
0.22 0.21 0.22 0.22 0.20 0.18 0.18 0.18 0.19 0.19 0.20 0.21 0.23 0.26 0.27 0.29 0.28 0.28 0.27 0.27 0.29 0.33 0.33 0.31 0.35 0.49 0.59 0.66 0.61 0.60 0.63 0.69 0.76 0.81 0.86 0.87 0.92 0.96 0.94 0.95 1.00 1.01 1.02 1.02
0.25 0.25 0.25 0.24 0.22 0.21 0.19 0.18 0.19 0.21 0.23 0.24 0.26 0.28 0.29 0.31 0.31 0.32 0.33 0.30 0.31 0.37 0.38 0.38 0.48 0.58 0.65 0.64 0.58 0.59 0.65 0.71 0.78 0.86 0.91 0.93 0.97 1.02 1.04 1.04 1.05 1.06 1.06 1.06
0.27 0.26 0.26 0.25 0.24 0.22 0.22 0.21 0.21 0.22 0.23 0.23 0.26 0.28 0.31 0.33 0.32 0.31 0.34 0.37 0.39 0.43 0.43 0.49 0.56 0.62 0.65 0.62 0.60 0.64 0.72 0.80 0.88 0.94 0.99 1.01 1.02 1.04 1.09 1.12 1.13 1.09 1.08 1.08
0.31 0.30 0.28 0.27 0.28 0.27 0.27 0.26 0.24 0.23 0.24 0.24 0.25 0.28 0.31 0.35 0.39 0.38 0.39 0.44 0.47 0.49 0.51 0.54 0.58 0.61 0.61 0.62 0.67 0.75 0.82 0.91 1.04 1.12 1.12 1.10 1.06 1.08 1.11 1.15 1.17 1.15 1.13 1.12
0.36 0.35 0.33 0.32 0.34 0.34 0.32 0.31 0.30 0.29 0.29 0.30 0.31 0.32 0.35 0.39 0.42 0.43 0.45 0.48 0.52 0.54 0.54 0.57 0.60 0.65 0.68 0.72 0.77 0.82 0.87 0.90 0.97 1.04 1.06 1.08 1.07 1.09 1.13 1.17 1.17 1.17 1.16 1.14
0.38 0.36 0.34 0.33 0.34 0.36 0.36 0.37 0.38 0.38 0.39 0.41 0.43 0.42 0.43 0.45 0.48 0.49 0.50 0.53 0.57 0.59 0.60 0.63 0.67 0.70 0.75 0.81 0.85 0.87 0.90 0.91 0.96 1.05 1.09 1.10 1.10 1.13 1.16 1.18 1.19 1.18 1.16 1.13